Time,TemperatureF,DewpointF,PressureIn,WindDirection,WindDirectionDegrees,WindSpeedMPH,WindSpeedGustMPH,Humidity,HourlyPrecipIn,Conditions,Clouds,dailyrainin,SoftwareType,DateUTC
2013-04-08 00:00:00,42.3,38.7,30.00,WNW,296,0.0,0.0,87,0.00,,,0.00,meteohub,2013-04-08 04:00:00,
2013-04-08 00:01:00,42.3,38.7,30.00,WNW,296,0.0,0.0,87,0.00,,,0.00,meteohub,2013-04-08 04:01:00,
2013-04-08 00:05:00,42.3,38.7,30.01,WNW,296,0.0,0.0,87,0.00,,,0.00,meteohub,2013-04-08 04:05:00,
2013-04-08 00:10:00,42.3,38.7,30.01,WNW,296,0.0,0.0,87,0.00,,,0.00,meteohub,2013-04-08 04:10:00,
2013-04-08 00:15:00,42.3,38.7,30.01,WNW,296,0.0,0.0,87,0.00,,,0.00,meteohub,2013-04-08 04:15:00,
2013-04-08 00:20:00,42.3,38.7,30.01,WNW,296,0.0,0.0,87,0.00,,,0.00,meteohub,2013-04-08 04:20:00,
2013-04-08 00:25:00,42.1,38.1,30.01,WNW,296,0.0,0.0,86,0.00,,,0.00,meteohub,2013-04-08 04:25:00,
2013-04-08 00:30:00,42.1,38.5,30.01,WNW,296,0.0,0.0,87,0.00,,,0.00,meteohub,2013-04-08 04:30:00,
2013-04-08 00:35:00,42.1,38.5,30.01,WNW,296,0.0,0.0,87,0.00,,,0.00,meteohub,2013-04-08 04:35:00,
2013-04-08 00:40:00,42.1,38.5,30.01,WNW,296,0.0,0.0,87,0.00,,,0.00,meteohub,2013-04-08 04:40:00,
2013-04-08 00:45:00,42.1,38.8,30.01,WNW,296,0.0,0.0,88,0.00,,,0.00,meteohub,2013-04-08 04:45:00,
2013-04-08 00:50:00,41.7,38.5,30.01,WNW,296,0.0,0.0,88,0.00,,,0.00,meteohub,2013-04-08 04:50:00,
2013-04-08 00:55:00,41.7,38.7,30.01,WNW,296,0.0,0.0,89,0.00,,,0.00,meteohub,2013-04-08 04:55:00,
2013-04-08 01:01:00,41.5,38.8,30.02,WNW,296,0.0,0.0,90,0.00,,,0.00,meteohub,2013-04-08 05:01:00,
2013-04-08 01:06:00,41.5,38.8,30.02,WNW,296,0.0,0.0,90,0.00,,,0.00,meteohub,2013-04-08 05:06:00,
2013-04-08 01:11:00,41.5,39.2,30.02,WNW,296,0.0,0.0,91,0.00,,,0.00,meteohub,2013-04-08 05:11:00,
2013-04-08 01:16:00,41.7,39.6,30.02,WNW,296,0.0,0.0,92,0.00,,,0.00,meteohub,2013-04-08 05:16:00,
2013-04-08 01:21:00,41.7,39.6,30.03,WNW,296,0.0,0.0,92,0.00,,,0.00,meteohub,2013-04-08 05:21:00,
2013-04-08 01:26:00,41.7,39.6,30.03,WNW,296,0.0,0.0,92,0.00,,,0.00,meteohub,2013-04-08 05:26:00,
2013-04-08 01:32:00,41.5,39.7,30.03,WNW,296,0.0,0.0,93,0.00,,,0.00,meteohub,2013-04-08 05:32:00,
2013-04-08 01:37:00,41.2,39.0,30.03,NW,304,0.0,0.0,92,0.00,,,0.00,meteohub,2013-04-08 05:37:00,
2013-04-08 01:42:00,41.2,39.4,30.03,NE,34,1.0,0.0,93,0.00,,,0.00,meteohub,2013-04-08 05:42:00,
2013-04-08 01:47:00,40.8,39.0,30.03,NE,34,1.0,2.0,93,0.00,,,0.00,meteohub,2013-04-08 05:47:00,
2013-04-08 01:52:00,40.8,39.0,30.03,NE,34,0.0,2.0,93,0.00,,,0.00,meteohub,2013-04-08 05:52:00,
2013-04-08 01:57:00,40.8,39.2,30.03,NE,34,1.0,2.0,94,0.00,,,0.00,meteohub,2013-04-08 05:57:00,
2013-04-08 02:02:00,40.8,39.2,30.04,NE,34,0.0,1.0,94,0.00,,,0.00,meteohub,2013-04-08 06:02:00,
2013-04-08 02:07:00,40.8,39.2,30.04,NE,34,0.0,1.0,94,0.00,,,0.00,meteohub,2013-04-08 06:07:00,
2013-04-08 02:12:00,40.8,39.2,30.03,NE,34,0.0,1.0,94,0.00,,,0.00,meteohub,2013-04-08 06:12:00,
2013-04-08 02:17:00,40.6,39.0,30.03,NE,34,0.0,1.0,94,0.00,,,0.00,meteohub,2013-04-08 06:17:00,
2013-04-08 02:22:00,40.5,38.8,30.03,NE,34,0.0,0.0,94,0.00,,,0.00,meteohub,2013-04-08 06:22:00,
2013-04-08 02:27:00,40.5,38.8,30.03,NE,34,0.0,0.0,94,0.00,,,0.00,meteohub,2013-04-08 06:27:00,
2013-04-08 02:32:00,40.3,38.7,30.03,NE,34,0.0,0.0,94,0.00,,,0.00,meteohub,2013-04-08 06:32:00,
2013-04-08 02:37:00,40.3,38.7,30.03,NE,34,0.0,0.0,94,0.00,,,0.00,meteohub,2013-04-08 06:37:00,
2013-04-08 02:42:00,39.9,38.3,30.03,NE,34,0.0,0.0,94,0.00,,,0.00,meteohub,2013-04-08 06:42:00,
2013-04-08 02:47:00,39.9,38.3,30.03,NE,34,0.0,0.0,94,0.00,,,0.00,meteohub,2013-04-08 06:47:00,
2013-04-08 02:52:00,39.9,38.3,30.03,NE,34,0.0,0.0,94,0.00,,,0.00,meteohub,2013-04-08 06:52:00,
2013-04-08 02:58:00,39.9,38.7,30.03,NE,34,0.0,0.0,95,0.00,,,0.00,meteohub,2013-04-08 06:58:00,
2013-04-08 03:03:00,40.3,38.7,30.03,NE,34,0.0,0.0,94,0.00,,,0.00,meteohub,2013-04-08 07:03:00,
2013-04-08 03:08:00,40.3,38.7,30.03,NE,34,0.0,0.0,94,0.00,,,0.00,meteohub,2013-04-08 07:08:00,
2013-04-08 03:13:00,40.5,38.8,30.03,NE,34,0.0,0.0,94,0.00,,,0.00,meteohub,2013-04-08 07:13:00,
2013-04-08 03:18:00,40.5,38.7,30.03,NE,34,0.0,0.0,93,0.00,,,0.00,meteohub,2013-04-08 07:18:00,
2013-04-08 03:23:00,40.3,38.5,30.03,NE,34,0.0,0.0,93,0.00,,,0.00,meteohub,2013-04-08 07:23:00,
2013-04-08 03:28:00,40.3,38.5,30.03,NE,34,0.0,0.0,93,0.00,,,0.00,meteohub,2013-04-08 07:28:00,
2013-04-08 03:33:00,40.5,38.8,30.03,NE,34,0.0,0.0,94,0.00,,,0.00,meteohub,2013-04-08 07:33:00,
2013-04-08 03:38:00,40.3,38.7,30.03,NE,34,0.0,0.0,94,0.00,,,0.00,meteohub,2013-04-08 07:38:00,
2013-04-08 03:43:00,39.9,38.1,30.02,NE,34,0.0,0.0,93,0.00,,,0.00,meteohub,2013-04-08 07:43:00,
2013-04-08 03:49:00,39.9,38.1,30.02,NE,34,0.0,0.0,93,0.00,,,0.00,meteohub,2013-04-08 07:49:00,
2013-04-08 03:54:00,40.1,37.9,30.02,NE,34,0.0,0.0,92,0.00,,,0.00,meteohub,2013-04-08 07:54:00,
2013-04-08 03:59:00,40.1,37.9,30.02,NE,34,0.0,0.0,92,0.00,,,0.00,meteohub,2013-04-08 07:59:00,
2013-04-08 04:04:00,40.3,37.9,30.02,NE,35,1.0,0.0,91,0.00,,,0.00,meteohub,2013-04-08 08:04:00,
2013-04-08 04:09:00,40.3,37.9,30.02,NE,35,0.0,2.0,91,0.00,,,0.00,meteohub,2013-04-08 08:09:00,
2013-04-08 04:14:00,40.3,37.6,30.02,NE,35,1.0,2.0,90,0.00,,,0.00,meteohub,2013-04-08 08:14:00,
2013-04-08 04:19:00,40.3,37.6,30.02,NE,35,0.0,2.0,90,0.00,,,0.00,meteohub,2013-04-08 08:19:00,
2013-04-08 04:24:00,40.3,37.2,30.02,NE,35,0.0,2.0,89,0.00,,,0.00,meteohub,2013-04-08 08:24:00,
2013-04-08 04:29:00,39.9,36.9,30.02,NE,42,2.0,2.0,89,0.00,,,0.00,meteohub,2013-04-08 08:29:00,
2013-04-08 04:35:00,39.9,36.9,30.02,NE,49,1.0,2.0,89,0.00,,,0.00,meteohub,2013-04-08 08:35:00,
2013-04-08 04:40:00,39.9,36.9,30.02,NE,50,1.0,2.0,89,0.00,,,0.00,meteohub,2013-04-08 08:40:00,
2013-04-08 04:45:00,39.9,36.7,30.02,SE,138,3.0,3.0,88,0.00,,,0.00,meteohub,2013-04-08 08:45:00,
2013-04-08 04:50:00,39.7,36.5,30.02,SSE,147,4.0,4.0,88,0.00,,,0.00,meteohub,2013-04-08 08:50:00,
2013-04-08 04:55:00,39.7,36.5,30.02,SE,138,6.0,6.0,88,0.00,,,0.00,meteohub,2013-04-08 08:55:00,
2013-04-08 05:00:00,39.6,36.3,30.01,SE,138,5.0,7.0,88,0.00,,,0.00,meteohub,2013-04-08 09:00:00,
2013-04-08 05:05:00,39.6,36.3,30.01,SE,137,4.0,7.0,88,0.00,,,0.00,meteohub,2013-04-08 09:05:00,
2013-04-08 05:10:00,39.6,36.3,30.02,SE,140,3.0,7.0,88,0.00,,,0.00,meteohub,2013-04-08 09:10:00,
2013-04-08 05:15:00,39.6,36.3,30.02,SE,144,4.0,5.0,88,0.00,,,0.00,meteohub,2013-04-08 09:15:00,
2013-04-08 05:20:00,39.6,36.3,30.02,SE,144,2.0,5.0,88,0.00,,,0.00,meteohub,2013-04-08 09:20:00,
2013-04-08 05:25:00,39.4,36.1,30.02,SE,144,2.0,5.0,88,0.00,,,0.00,meteohub,2013-04-08 09:25:00,
2013-04-08 05:30:00,39.0,35.8,30.02,SE,144,2.0,5.0,88,0.00,,,0.00,meteohub,2013-04-08 09:30:00,
2013-04-08 05:35:00,39.0,36.1,30.01,SE,144,2.0,4.0,89,0.00,,,0.00,meteohub,2013-04-08 09:35:00,
2013-04-08 05:41:00,39.0,36.1,30.01,SE,143,1.0,3.0,89,0.00,,,0.00,meteohub,2013-04-08 09:41:00,
2013-04-08 05:46:00,38.8,36.0,30.01,SE,143,1.0,3.0,89,0.00,,,0.00,meteohub,2013-04-08 09:46:00,
2013-04-08 05:51:00,38.7,35.8,30.01,SE,143,0.0,3.0,89,0.00,,,0.00,meteohub,2013-04-08 09:51:00,
2013-04-08 05:56:00,38.7,36.0,30.00,SE,142,2.0,2.0,90,0.00,,,0.00,meteohub,2013-04-08 09:56:00,
2013-04-08 06:01:00,38.8,36.0,30.01,SE,142,3.0,4.0,89,0.00,,,0.00,meteohub,2013-04-08 10:01:00,
2013-04-08 06:06:00,38.8,36.1,30.01,SE,144,4.0,4.0,90,0.00,,,0.00,meteohub,2013-04-08 10:06:00,
2013-04-08 06:11:00,38.8,36.0,30.01,SE,143,3.0,4.0,89,0.00,,,0.00,meteohub,2013-04-08 10:11:00,
2013-04-08 06:17:00,38.8,36.0,30.01,SE,144,3.0,5.0,89,0.00,,,0.00,meteohub,2013-04-08 10:17:00,
2013-04-08 06:22:00,38.8,36.0,30.01,SSE,150,4.0,5.0,89,0.00,,,0.00,meteohub,2013-04-08 10:22:00,
2013-04-08 06:27:00,38.8,36.0,30.01,SSE,148,2.0,5.0,89,0.00,,,0.00,meteohub,2013-04-08 10:27:00,
2013-04-08 06:32:00,38.8,36.0,30.01,SSE,148,1.0,5.0,89,0.00,,,0.00,meteohub,2013-04-08 10:32:00,
2013-04-08 06:37:00,39.0,36.1,30.01,SSE,148,2.0,5.0,89,0.00,,,0.00,meteohub,2013-04-08 10:37:00,
2013-04-08 06:42:00,39.0,36.1,30.02,SSE,148,0.0,4.0,89,0.00,,,0.00,meteohub,2013-04-08 10:42:00,
2013-04-08 06:47:00,38.8,36.0,30.02,SSE,148,0.0,3.0,89,0.00,,,0.00,meteohub,2013-04-08 10:47:00,
2013-04-08 06:52:00,38.8,36.1,30.02,SSE,148,2.0,2.0,90,0.00,,,0.00,meteohub,2013-04-08 10:52:00,
2013-04-08 06:57:00,39.0,36.3,30.02,ESE,102,4.0,4.0,90,0.00,,,0.00,meteohub,2013-04-08 10:57:00,
2013-04-08 07:01:00,39.0,36.3,30.02,East,89,4.0,5.0,90,0.00,,,0.00,meteohub,2013-04-08 11:01:00,
2013-04-08 07:07:00,39.4,36.7,30.02,East,89,4.0,6.0,90,0.00,,,0.00,meteohub,2013-04-08 11:07:00,
2013-04-08 07:12:00,39.4,36.7,30.03,East,88,5.0,6.0,90,0.00,,,0.00,meteohub,2013-04-08 11:12:00,
2013-04-08 07:17:00,39.4,36.7,30.03,East,90,3.0,6.0,90,0.00,,,0.00,meteohub,2013-04-08 11:17:00,
2013-04-08 07:20:00,39.4,36.7,30.03,East,90,3.0,6.0,90,0.00,,,0.00,meteohub,2013-04-08 11:20:00,
2013-04-08 07:27:00,39.4,36.7,30.03,East,93,2.0,6.0,90,0.00,,,0.00,meteohub,2013-04-08 11:27:00,
2013-04-08 07:32:00,39.4,36.5,30.03,SE,124,3.0,5.0,89,0.00,,,0.00,meteohub,2013-04-08 11:32:00,
2013-04-08 07:37:00,39.6,36.5,30.03,ESE,113,3.0,7.0,89,0.00,,,0.00,meteohub,2013-04-08 11:37:00,
2013-04-08 07:42:00,39.7,36.7,30.03,ESE,113,4.0,7.0,89,0.00,,,0.00,meteohub,2013-04-08 11:42:00,
2013-04-08 07:47:00,39.9,36.9,30.03,East,88,5.0,7.0,89,0.00,,,0.00,meteohub,2013-04-08 11:47:00,
2013-04-08 07:52:00,40.1,37.0,30.03,East,88,3.0,6.0,89,0.00,,,0.00,meteohub,2013-04-08 11:52:00,
2013-04-08 07:57:00,40.3,37.2,30.03,ENE,78,5.0,6.0,89,0.00,,,0.00,meteohub,2013-04-08 11:57:00,
2013-04-08 08:02:00,40.5,37.4,30.04,ENE,65,5.0,6.0,89,0.00,,,0.00,meteohub,2013-04-08 12:02:00,
2013-04-08 08:07:00,40.5,37.4,30.04,ENE,65,6.0,6.0,89,0.00,,,0.00,meteohub,2013-04-08 12:07:00,
2013-04-08 08:12:00,40.5,37.4,30.03,ENE,64,9.0,9.0,89,0.00,,,0.00,meteohub,2013-04-08 12:12:00,
2013-04-08 08:17:00,40.1,37.4,30.03,NE,55,11.0,11.0,90,0.00,,,0.00,meteohub,2013-04-08 12:17:00,
2013-04-08 08:23:00,39.7,37.4,30.03,ENE,61,11.0,13.0,91,0.00,,,0.00,meteohub,2013-04-08 12:23:00,
2013-04-08 08:28:00,39.7,37.4,30.03,ENE,70,10.0,13.0,91,0.00,,,0.00,meteohub,2013-04-08 12:28:00,
2013-04-08 08:33:00,39.7,37.4,30.03,ENE,67,12.0,13.0,91,0.00,,,0.00,meteohub,2013-04-08 12:33:00,
2013-04-08 08:38:00,39.7,37.4,30.03,ENE,67,12.0,13.0,91,0.00,,,0.00,meteohub,2013-04-08 12:38:00,
2013-04-08 08:43:00,39.6,37.2,30.03,ENE,73,11.0,14.0,91,0.00,,,0.00,meteohub,2013-04-08 12:43:00,
2013-04-08 08:48:00,39.7,37.4,30.03,ENE,72,12.0,14.0,91,0.00,,,0.00,meteohub,2013-04-08 12:48:00,
2013-04-08 08:53:00,39.7,37.4,30.02,ENE,62,14.0,14.0,91,0.00,,,0.00,meteohub,2013-04-08 12:53:00,
2013-04-08 08:58:00,39.6,37.2,30.03,ENE,68,11.0,14.0,91,0.00,,,0.00,meteohub,2013-04-08 12:58:00,
2013-04-08 09:03:00,39.6,37.4,30.03,ENE,75,10.0,14.0,92,0.00,,,0.00,meteohub,2013-04-08 13:03:00,
2013-04-08 09:08:00,39.7,37.6,30.03,ENE,69,9.0,14.0,92,0.00,,,0.00,meteohub,2013-04-08 13:08:00,
2013-04-08 09:13:00,39.6,37.2,30.03,ENE,65,9.0,12.0,91,0.00,,,0.00,meteohub,2013-04-08 13:13:00,
2013-04-08 09:18:00,39.7,37.6,30.02,ENE,59,10.0,11.0,92,0.00,,,0.00,meteohub,2013-04-08 13:18:00,
2013-04-08 09:23:00,39.9,37.6,30.02,ENE,69,10.0,11.0,91,0.00,,,0.00,meteohub,2013-04-08 13:23:00,
2013-04-08 09:28:00,40.1,37.8,30.02,ENE,68,9.0,12.0,91,0.00,,,0.00,meteohub,2013-04-08 13:28:00,
2013-04-08 09:34:00,40.3,37.9,30.02,ENE,68,7.0,12.0,91,0.00,,,0.00,meteohub,2013-04-08 13:34:00,
2013-04-08 09:39:00,40.3,37.9,30.02,ENE,62,9.0,12.0,91,0.00,,,0.00,meteohub,2013-04-08 13:39:00,
2013-04-08 09:44:00,40.5,38.1,30.01,ENE,68,10.0,11.0,91,0.00,,,0.00,meteohub,2013-04-08 13:44:00,
2013-04-08 09:49:00,40.3,37.9,30.01,ENE,69,10.0,11.0,91,0.00,,,0.00,meteohub,2013-04-08 13:49:00,
2013-04-08 09:54:00,40.5,38.1,30.01,ENE,70,7.0,12.0,91,0.00,,,0.00,meteohub,2013-04-08 13:54:00,
2013-04-08 09:59:00,40.6,38.5,30.01,ENE,73,7.0,12.0,92,0.00,,,0.00,meteohub,2013-04-08 13:59:00,
2013-04-08 10:04:00,40.8,38.7,30.01,ENE,71,8.0,12.0,92,0.00,,,0.00,meteohub,2013-04-08 14:04:00,
2013-04-08 10:09:00,41.0,38.8,30.00,ENE,65,9.0,11.0,92,0.00,,,0.00,meteohub,2013-04-08 14:09:00,
2013-04-08 10:15:00,40.8,38.5,30.00,ENE,65,11.0,11.0,91,0.00,,,0.00,meteohub,2013-04-08 14:15:00,
2013-04-08 10:20:00,41.2,40.5,29.99,ENE,69,11.0,11.0,97,0.00,,,0.00,meteohub,2013-04-08 14:20:00,
2013-04-08 10:25:00,41.2,39.0,29.99,ENE,76,10.0,12.0,92,0.00,,,0.00,meteohub,2013-04-08 14:25:00,
2013-04-08 10:30:00,41.4,39.2,29.99,ENE,76,11.0,13.0,92,0.00,,,0.00,meteohub,2013-04-08 14:30:00,
2013-04-08 10:35:00,41.4,39.2,29.99,ENE,71,11.0,13.0,92,0.00,,,0.00,meteohub,2013-04-08 14:35:00,
2013-04-08 10:40:00,41.4,39.2,29.99,ENE,73,12.0,13.0,92,0.00,,,0.00,meteohub,2013-04-08 14:40:00,
2013-04-08 10:45:00,41.2,39.0,29.99,ENE,72,13.0,13.0,92,0.00,,,0.00,meteohub,2013-04-08 14:45:00,
2013-04-08 10:50:00,41.2,38.8,29.98,East,79,13.0,14.0,91,0.00,,,0.00,meteohub,2013-04-08 14:50:00,
2013-04-08 10:55:00,41.2,39.0,29.97,East,79,12.0,15.0,92,0.00,,,0.00,meteohub,2013-04-08 14:55:00,
2013-04-08 11:00:00,41.2,39.0,29.97,ENE,74,15.0,15.0,92,0.00,,,0.00,meteohub,2013-04-08 15:00:00,
2013-04-08 11:05:00,41.0,38.7,29.97,ENE,74,15.0,15.0,91,0.00,,,0.00,meteohub,2013-04-08 15:05:00,
2013-04-08 11:10:00,41.0,38.8,29.96,ENE,70,15.0,17.0,92,0.00,,,0.00,meteohub,2013-04-08 15:10:00,
2013-04-08 11:15:00,40.8,38.7,29.97,ENE,74,16.0,17.0,92,0.00,,,0.00,meteohub,2013-04-08 15:15:00,
2013-04-08 11:20:00,40.8,38.7,29.96,ENE,78,16.0,17.0,92,0.00,,,0.00,meteohub,2013-04-08 15:20:00,
2013-04-08 11:25:00,40.8,38.5,29.96,ENE,74,15.0,17.0,91,0.00,,,0.00,meteohub,2013-04-08 15:25:00,
2013-04-08 11:30:00,41.0,38.7,29.96,ENE,71,14.0,17.0,91,0.00,,,0.00,meteohub,2013-04-08 15:30:00,
2013-04-08 11:35:00,41.2,38.8,29.97,ENE,72,17.0,17.0,91,0.00,,,0.00,meteohub,2013-04-08 15:35:00,
2013-04-08 11:41:00,41.2,38.8,29.96,ENE,74,17.0,17.0,91,0.00,,,0.00,meteohub,2013-04-08 15:41:00,
2013-04-08 11:46:00,41.2,38.8,29.96,ENE,76,16.0,17.0,91,0.00,,,0.00,meteohub,2013-04-08 15:46:00,
2013-04-08 11:52:00,40.8,38.5,29.96,East,80,17.0,19.0,91,0.00,,,0.00,meteohub,2013-04-08 15:52:00,
2013-04-08 11:57:00,40.8,38.5,29.96,ENE,73,16.0,19.0,91,0.00,,,0.00,meteohub,2013-04-08 15:57:00,
2013-04-08 12:02:00,40.8,38.5,29.96,ENE,76,17.0,19.0,91,0.00,,,0.00,meteohub,2013-04-08 16:02:00,
2013-04-08 12:07:00,40.8,38.5,29.95,ENE,71,18.0,18.0,91,0.00,,,0.00,meteohub,2013-04-08 16:07:00,
2013-04-08 12:12:00,40.8,38.5,29.95,ENE,73,14.0,18.0,91,0.00,,,0.00,meteohub,2013-04-08 16:12:00,
2013-04-08 12:17:00,41.0,38.7,29.95,ENE,67,17.0,18.0,91,0.00,,,0.00,meteohub,2013-04-08 16:17:00,
2013-04-08 12:22:00,40.8,38.7,29.95,ENE,71,18.0,18.0,92,0.00,,,0.00,meteohub,2013-04-08 16:22:00,
2013-04-08 12:27:00,40.8,38.7,29.94,ENE,69,15.0,18.0,92,0.00,,,0.00,meteohub,2013-04-08 16:27:00,
2013-04-08 12:32:00,40.8,38.7,29.94,ENE,68,14.0,18.0,92,0.00,,,0.00,meteohub,2013-04-08 16:32:00,
2013-04-08 12:37:00,40.8,38.7,29.94,ENE,71,15.0,18.0,92,0.00,,,0.00,meteohub,2013-04-08 16:37:00,
2013-04-08 12:42:00,41.2,39.0,29.93,ENE,74,17.0,19.0,92,0.00,,,0.00,meteohub,2013-04-08 16:42:00,
2013-04-08 12:48:00,41.2,39.0,29.92,ENE,76,17.0,19.0,92,0.00,,,0.00,meteohub,2013-04-08 16:48:00,
2013-04-08 12:53:00,41.2,39.0,29.92,ENE,69,17.0,19.0,92,0.00,,,0.00,meteohub,2013-04-08 16:53:00,
2013-04-08 12:58:00,41.2,39.0,29.92,ENE,67,18.0,20.0,92,0.00,,,0.00,meteohub,2013-04-08 16:58:00,
2013-04-08 13:03:00,41.4,39.2,29.91,ENE,71,17.0,21.0,92,0.00,,,0.00,meteohub,2013-04-08 17:03:00,
2013-04-08 13:08:00,41.5,39.4,29.91,ENE,77,16.0,22.0,92,0.00,,,0.00,meteohub,2013-04-08 17:08:00,
2013-04-08 13:13:00,41.7,39.6,29.91,ENE,74,19.0,22.0,92,0.00,,,0.00,meteohub,2013-04-08 17:13:00,
2013-04-08 13:18:00,41.9,39.4,29.91,East,80,19.0,22.0,91,0.00,,,0.00,meteohub,2013-04-08 17:18:00,
2013-04-08 13:23:00,41.9,39.4,29.90,ENE,76,18.0,20.0,91,0.00,,,0.00,meteohub,2013-04-08 17:23:00,
2013-04-08 13:28:00,42.1,39.6,29.89,ENE,73,19.0,21.0,91,0.00,,,0.00,meteohub,2013-04-08 17:28:00,
2013-04-08 13:33:00,41.9,39.4,29.89,ENE,67,20.0,21.0,91,0.00,,,0.00,meteohub,2013-04-08 17:33:00,
2013-04-08 13:38:00,42.1,39.9,29.88,ENE,70,16.0,22.0,92,0.00,,,0.00,meteohub,2013-04-08 17:38:00,
2013-04-08 13:44:00,42.3,40.1,29.88,ENE,70,17.0,22.0,92,0.00,,,0.00,meteohub,2013-04-08 17:44:00,
2013-04-08 13:49:00,42.6,40.5,29.88,ENE,72,17.0,22.0,92,0.00,,,0.00,meteohub,2013-04-08 17:49:00,
2013-04-08 13:54:00,42.6,40.1,29.87,ENE,67,16.0,20.0,91,0.00,,,0.00,meteohub,2013-04-08 17:54:00,
2013-04-08 13:59:00,42.4,39.9,29.87,East,83,11.0,22.0,91,0.00,,,0.00,meteohub,2013-04-08 17:59:00,
2013-04-08 14:05:00,42.6,40.1,29.87,ENE,67,20.0,22.0,91,0.00,,,0.00,meteohub,2013-04-08 18:05:00,
2013-04-08 14:10:00,42.6,39.9,29.86,ENE,78,18.0,22.0,90,0.00,,,0.00,meteohub,2013-04-08 18:10:00,
2013-04-08 14:15:00,42.6,40.1,29.86,ENE,73,15.0,21.0,91,0.00,,,0.00,meteohub,2013-04-08 18:15:00,
2013-04-08 14:20:00,42.8,40.3,29.86,ENE,70,16.0,21.0,91,0.00,,,0.00,meteohub,2013-04-08 18:20:00,
2013-04-08 14:25:00,42.6,40.1,29.86,ENE,73,15.0,21.0,91,0.00,,,0.00,meteohub,2013-04-08 18:25:00,
2013-04-08 14:30:00,42.6,39.9,29.86,ENE,71,14.0,18.0,90,0.00,,,0.00,meteohub,2013-04-08 18:30:00,
2013-04-08 14:35:00,42.6,40.1,29.86,ENE,74,17.0,18.0,91,0.00,,,0.00,meteohub,2013-04-08 18:35:00,
2013-04-08 14:40:00,42.6,40.1,29.85,ENE,74,15.0,18.0,91,0.00,,,0.00,meteohub,2013-04-08 18:40:00,
2013-04-08 14:45:00,42.6,39.9,29.85,ENE,76,15.0,18.0,90,0.00,,,0.00,meteohub,2013-04-08 18:45:00,
2013-04-08 14:50:00,42.8,40.3,29.85,ENE,77,15.0,18.0,91,0.00,,,0.00,meteohub,2013-04-08 18:50:00,
2013-04-08 14:55:00,43.0,40.3,29.85,East,81,12.0,18.0,90,0.00,,,0.00,meteohub,2013-04-08 18:55:00,
2013-04-08 15:00:00,43.0,40.5,29.84,ENE,69,16.0,17.0,91,0.00,,,0.00,meteohub,2013-04-08 19:00:00,
2013-04-08 15:05:00,43.0,40.3,29.84,ENE,71,14.0,17.0,90,0.00,,,0.00,meteohub,2013-04-08 19:05:00,
2013-04-08 15:10:00,43.3,40.8,29.84,ENE,76,14.0,17.0,91,0.00,,,0.00,meteohub,2013-04-08 19:10:00,
2013-04-08 15:15:00,43.3,40.6,29.83,ENE,76,18.0,18.0,90,0.00,,,0.00,meteohub,2013-04-08 19:15:00,
2013-04-08 15:21:00,43.3,40.6,29.83,East,86,10.0,20.0,90,0.00,,,0.00,meteohub,2013-04-08 19:21:00,
2013-04-08 15:25:00,43.2,40.5,29.83,ENE,70,15.0,20.0,90,0.00,,,0.00,meteohub,2013-04-08 19:25:00,
2013-04-08 15:31:00,43.2,40.5,29.83,ENE,69,13.0,20.0,90,0.00,,,0.00,meteohub,2013-04-08 19:31:00,
2013-04-08 15:36:00,43.0,40.5,29.83,ENE,74,15.0,16.0,91,0.00,,,0.00,meteohub,2013-04-08 19:36:00,
2013-04-08 15:41:00,42.6,40.1,29.82,ENE,76,15.0,16.0,91,0.00,,,0.00,meteohub,2013-04-08 19:41:00,
2013-04-08 15:46:00,42.6,40.1,29.81,ENE,78,13.0,16.0,91,0.00,,,0.00,meteohub,2013-04-08 19:46:00,
2013-04-08 15:51:00,43.2,40.6,29.81,ENE,78,10.0,16.0,91,0.00,,,0.00,meteohub,2013-04-08 19:51:00,
2013-04-08 15:56:00,43.9,41.7,29.80,ENE,59,12.0,16.0,92,0.00,,,0.00,meteohub,2013-04-08 19:56:00,
2013-04-08 16:02:00,44.4,42.3,29.78,ENE,65,14.0,15.0,92,0.00,,,0.00,meteohub,2013-04-08 20:02:00,
2013-04-08 16:07:00,45.7,43.5,29.78,NE,45,13.0,14.0,92,0.00,,,0.00,meteohub,2013-04-08 20:07:00,
2013-04-08 16:12:00,44.8,42.1,29.78,NE,48,12.0,14.0,90,0.00,,,0.00,meteohub,2013-04-08 20:12:00,
2013-04-08 16:17:00,44.2,41.7,29.78,NE,38,11.0,15.0,91,0.00,,,0.00,meteohub,2013-04-08 20:17:00,
2013-04-08 16:22:00,44.4,42.3,29.78,NE,47,9.0,15.0,92,0.00,,,0.00,meteohub,2013-04-08 20:22:00,
2013-04-08 16:27:00,46.9,44.2,29.77,ENE,76,4.0,15.0,90,0.00,,,0.00,meteohub,2013-04-08 20:27:00,
2013-04-08 16:32:00,47.7,45.5,29.77,ESE,122,0.0,13.0,92,0.00,,,0.00,meteohub,2013-04-08 20:32:00,
2013-04-08 16:37:00,48.7,45.9,29.76,ESE,122,0.0,11.0,90,0.00,,,0.00,meteohub,2013-04-08 20:37:00,
2013-04-08 16:42:00,49.3,46.2,29.76,ESE,122,0.0,6.0,89,0.00,,,0.00,meteohub,2013-04-08 20:42:00,
2013-04-08 16:47:00,51.6,48.7,29.76,WNW,293,3.0,3.0,90,0.00,,,0.00,meteohub,2013-04-08 20:47:00,
2013-04-08 16:52:00,56.5,52.7,29.75,WSW,245,6.0,6.0,87,0.00,,,0.00,meteohub,2013-04-08 20:52:00,
2013-04-08 16:57:00,63.9,56.1,29.75,SSW,213,12.0,16.0,76,0.00,,,0.00,meteohub,2013-04-08 20:57:00,
2013-04-08 17:02:00,67.8,56.5,29.75,SSW,210,13.0,16.0,67,0.00,,,0.00,meteohub,2013-04-08 21:02:00,
2013-04-08 17:07:00,69.1,55.9,29.74,SSW,202,11.0,17.0,63,0.00,,,0.00,meteohub,2013-04-08 21:07:00,
2013-04-08 17:12:00,69.4,55.9,29.74,SSE,165,13.0,17.0,62,0.00,,,0.00,meteohub,2013-04-08 21:12:00,
2013-04-08 17:17:00,70.0,55.4,29.73,SW,219,12.0,17.0,60,0.00,,,0.00,meteohub,2013-04-08 21:17:00,
2013-04-08 17:22:00,70.2,55.6,29.73,SW,230,8.0,20.0,60,0.00,,,0.00,meteohub,2013-04-08 21:22:00,
2013-04-08 17:28:00,70.3,55.4,29.73,South,191,14.0,20.0,59,0.00,,,0.00,meteohub,2013-04-08 21:28:00,
2013-04-08 17:33:00,70.7,55.2,29.73,SW,215,15.0,21.0,58,0.00,,,0.00,meteohub,2013-04-08 21:33:00,
2013-04-08 17:38:00,71.1,55.0,29.73,SW,227,16.0,24.0,57,0.00,,,0.00,meteohub,2013-04-08 21:38:00,
2013-04-08 17:43:00,71.2,55.2,29.73,SW,215,23.0,29.0,57,0.00,,,0.00,meteohub,2013-04-08 21:43:00,
2013-04-08 17:48:00,71.2,54.7,29.73,SW,218,21.0,29.0,56,0.00,,,0.00,meteohub,2013-04-08 21:48:00,
2013-04-08 17:53:00,71.1,55.0,29.74,SW,219,19.0,29.0,57,0.00,,,0.00,meteohub,2013-04-08 21:53:00,
2013-04-08 17:58:00,71.2,54.7,29.74,SW,226,26.0,31.0,56,0.00,,,0.00,meteohub,2013-04-08 21:58:00,
2013-04-08 18:03:00,71.2,54.7,29.75,WSW,238,21.0,31.0,56,0.00,,,0.00,meteohub,2013-04-08 22:03:00,
2013-04-08 18:08:00,56.7,42.1,29.77,NW,309,9.0,31.0,58,0.00,,,0.00,meteohub,2013-04-08 22:08:00,
2013-04-08 18:13:00,53.1,44.2,29.77,NW,325,0.0,28.0,72,0.00,,,0.00,meteohub,2013-04-08 22:13:00,
2013-04-08 18:19:00,52.9,45.1,29.77,NNW,328,0.0,26.0,75,0.00,,,0.00,meteohub,2013-04-08 22:19:00,
2013-04-08 18:24:00,52.5,45.1,29.77,NE,49,2.0,21.0,76,0.00,,,0.00,meteohub,2013-04-08 22:24:00,
2013-04-08 18:29:00,51.1,44.1,29.77,NE,49,3.0,3.0,77,0.00,,,0.00,meteohub,2013-04-08 22:29:00,
2013-04-08 18:34:00,49.6,43.7,29.77,ENE,59,10.0,10.0,80,0.00,,,0.00,meteohub,2013-04-08 22:34:00,
2013-04-08 18:39:00,48.0,43.2,29.77,ENE,77,12.0,12.0,83,0.00,,,0.00,meteohub,2013-04-08 22:39:00,
2013-04-08 18:44:00,46.0,41.7,29.77,ENE,65,11.0,13.0,85,0.00,,,0.00,meteohub,2013-04-08 22:44:00,
2013-04-08 18:50:00,44.8,41.4,29.77,NE,55,14.0,14.0,88,0.00,,,0.00,meteohub,2013-04-08 22:50:00,
2013-04-08 18:55:00,44.1,41.4,29.77,ENE,71,10.0,15.0,90,0.00,,,0.00,meteohub,2013-04-08 22:55:00,
2013-04-08 19:00:00,43.9,41.4,29.77,East,80,5.0,15.0,91,0.00,,,0.00,meteohub,2013-04-08 23:00:00,
2013-04-08 19:05:00,44.2,42.1,29.77,ENE,67,5.0,15.0,92,0.00,,,0.00,meteohub,2013-04-08 23:05:00,
2013-04-08 19:10:00,44.4,42.3,29.77,NE,51,3.0,11.0,92,0.00,,,0.00,meteohub,2013-04-08 23:10:00,
2013-04-08 19:15:00,45.0,43.0,29.76,NE,53,0.0,9.0,93,0.00,,,0.00,meteohub,2013-04-08 23:15:00,
2013-04-08 19:20:00,45.3,43.3,29.76,NE,53,1.0,9.0,93,0.00,,,0.00,meteohub,2013-04-08 23:20:00,
2013-04-08 19:25:00,47.8,46.2,29.75,NW,305,3.0,11.0,94,0.00,,,0.00,meteohub,2013-04-08 23:25:00,
2013-04-08 19:30:00,51.8,49.6,29.75,SW,234,3.0,11.0,92,0.00,,,0.00,meteohub,2013-04-08 23:30:00,
2013-04-08 19:35:00,61.2,57.0,29.74,WSW,238,16.0,16.0,86,0.00,,,0.00,meteohub,2013-04-08 23:35:00,
2013-04-08 19:40:00,68.7,55.6,29.73,SW,232,16.0,28.0,63,0.00,,,0.00,meteohub,2013-04-08 23:40:00,
2013-04-08 19:45:00,69.6,55.6,29.73,SW,233,16.0,28.0,61,0.00,,,0.00,meteohub,2013-04-08 23:45:00,
2013-04-08 19:50:00,69.6,55.0,29.73,SW,229,12.0,28.0,60,0.00,,,0.00,meteohub,2013-04-08 23:50:00,
2013-04-08 19:56:00,69.8,55.2,29.73,SW,221,16.0,26.0,60,0.00,,,0.00,meteohub,2013-04-08 23:56:00,
2013-04-08 20:01:00,69.4,54.9,29.73,SSW,209,20.0,26.0,60,0.00,,,0.00,meteohub,2013-04-09 00:01:00,
2013-04-08 20:06:00,70.0,55.4,29.74,SW,219,19.0,31.0,60,0.00,,,0.00,meteohub,2013-04-09 00:06:00,
2013-04-08 20:11:00,69.8,55.2,29.73,SSW,212,16.0,31.0,60,0.00,,,0.00,meteohub,2013-04-09 00:11:00,
2013-04-08 20:16:00,69.6,55.0,29.74,SW,215,16.0,31.0,60,0.00,,,0.00,meteohub,2013-04-09 00:16:00,
2013-04-08 20:21:00,69.6,55.6,29.74,WSW,237,12.0,25.0,61,0.00,,,0.00,meteohub,2013-04-09 00:21:00,
2013-04-08 20:27:00,69.4,55.4,29.74,WSW,238,16.0,24.0,61,0.00,,,0.00,meteohub,2013-04-09 00:27:00,
2013-04-08 20:32:00,69.3,55.8,29.74,SW,227,17.0,23.0,62,0.00,,,0.00,meteohub,2013-04-09 00:32:00,
2013-04-08 20:37:00,69.6,55.6,29.74,WSW,238,15.0,21.0,61,0.00,,,0.00,meteohub,2013-04-09 00:37:00,
2013-04-08 20:42:00,69.4,55.4,29.75,WSW,238,22.0,31.0,61,0.00,,,0.00,meteohub,2013-04-09 00:42:00,
2013-04-08 20:47:00,69.6,55.6,29.75,SW,221,20.0,31.0,61,0.00,,,0.00,meteohub,2013-04-09 00:47:00,
2013-04-08 20:52:00,69.4,55.4,29.75,SW,221,14.0,29.0,61,0.00,,,0.00,meteohub,2013-04-09 00:52:00,
2013-04-08 20:57:00,69.4,55.9,29.75,SW,231,16.0,29.0,62,0.00,,,0.00,meteohub,2013-04-09 00:57:00,
2013-04-08 21:02:00,69.4,55.9,29.75,SW,234,13.0,26.0,62,0.00,,,0.00,meteohub,2013-04-09 01:02:00,
2013-04-08 21:07:00,69.4,55.9,29.75,SW,231,16.0,28.0,62,0.00,,,0.00,meteohub,2013-04-09 01:07:00,
2013-04-08 21:12:00,68.9,55.8,29.75,SW,234,24.0,28.0,63,0.00,,,0.00,meteohub,2013-04-09 01:12:00,
2013-04-08 21:17:00,68.4,56.1,29.75,SW,236,19.0,26.0,65,0.00,,,0.00,meteohub,2013-04-09 01:17:00,
2013-04-08 21:22:00,68.4,56.1,29.75,SW,217,19.0,26.0,65,0.00,,,0.00,meteohub,2013-04-09 01:22:00,
2013-04-08 21:27:00,68.2,55.9,29.74,SW,215,13.0,26.0,65,0.00,,,0.00,meteohub,2013-04-09 01:27:00,
2013-04-08 21:32:00,68.2,55.9,29.74,SW,223,14.0,26.0,65,0.00,,,0.00,meteohub,2013-04-09 01:32:00,
2013-04-08 21:37:00,68.4,56.1,29.75,SW,233,20.0,26.0,65,0.00,,,0.00,meteohub,2013-04-09 01:37:00,
2013-04-08 21:42:00,68.2,55.9,29.75,SW,222,15.0,26.0,65,0.00,,,0.00,meteohub,2013-04-09 01:42:00,
2013-04-08 21:47:00,68.4,55.8,29.76,SW,233,20.0,26.0,64,0.00,,,0.00,meteohub,2013-04-09 01:47:00,
2013-04-08 21:53:00,68.4,56.1,29.76,SW,232,9.0,26.0,65,0.00,,,0.00,meteohub,2013-04-09 01:53:00,
2013-04-08 21:58:00,68.4,55.8,29.76,SW,219,15.0,26.0,64,0.00,,,0.00,meteohub,2013-04-09 01:58:00,
2013-04-08 22:03:00,68.4,56.1,29.76,SW,236,18.0,28.0,65,0.00,,,0.00,meteohub,2013-04-09 02:03:00,
2013-04-08 22:08:00,68.4,56.1,29.76,SW,225,18.0,28.0,65,0.00,,,0.00,meteohub,2013-04-09 02:08:00,
2013-04-08 22:13:00,68.4,56.1,29.76,SW,224,20.0,28.0,65,0.00,,,0.00,meteohub,2013-04-09 02:13:00,
2013-04-08 22:18:00,68.4,56.1,29.76,SW,225,19.0,26.0,65,0.00,,,0.00,meteohub,2013-04-09 02:18:00,
2013-04-08 22:23:00,68.4,56.1,29.76,WSW,240,26.0,27.0,65,0.00,,,0.00,meteohub,2013-04-09 02:23:00,
2013-04-08 22:28:00,68.2,55.9,29.76,SW,220,19.0,34.0,65,0.00,,,0.00,meteohub,2013-04-09 02:28:00,
2013-04-08 22:33:00,68.2,56.3,29.77,SW,229,18.0,34.0,66,0.00,,,0.00,meteohub,2013-04-09 02:33:00,
2013-04-08 22:38:00,67.8,56.5,29.76,SW,220,21.0,34.0,67,0.00,,,0.00,meteohub,2013-04-09 02:38:00,
2013-04-08 22:44:00,67.6,56.7,29.77,WSW,239,22.0,35.0,68,0.00,,,0.00,meteohub,2013-04-09 02:44:00,
2013-04-08 22:49:00,67.5,56.5,29.77,SW,225,18.0,35.0,68,0.00,,,0.00,meteohub,2013-04-09 02:49:00,
2013-04-08 22:54:00,67.5,57.0,29.77,SW,232,22.0,31.0,69,0.00,,,0.00,meteohub,2013-04-09 02:54:00,
2013-04-08 22:59:00,67.5,57.0,29.77,SW,228,27.0,30.0,69,0.00,,,0.00,meteohub,2013-04-09 02:59:00,
2013-04-08 23:04:00,67.5,56.5,29.78,SW,233,18.0,30.0,68,0.00,,,0.00,meteohub,2013-04-09 03:04:00,
2013-04-08 23:09:00,67.5,57.0,29.78,WSW,237,19.0,28.0,69,0.00,,,0.00,meteohub,2013-04-09 03:09:00,
2013-04-08 23:14:00,67.5,56.5,29.78,SW,227,21.0,29.0,68,0.00,,,0.00,meteohub,2013-04-09 03:14:00,
2013-04-08 23:20:00,67.6,57.0,29.78,WSW,245,17.0,29.0,69,0.00,,,0.00,meteohub,2013-04-09 03:20:00,
2013-04-08 23:24:00,67.6,57.0,29.78,SW,230,29.0,29.0,69,0.00,,,0.00,meteohub,2013-04-09 03:24:00,
2013-04-08 23:30:00,67.8,57.2,29.78,WSW,247,25.0,29.0,69,0.00,,,0.00,meteohub,2013-04-09 03:30:00,
2013-04-08 23:35:00,67.6,57.0,29.78,WSW,237,24.0,33.0,69,0.00,,,0.00,meteohub,2013-04-09 03:35:00,
2013-04-08 23:40:00,68.0,57.9,29.78,WSW,250,27.0,33.0,70,0.00,,,0.00,meteohub,2013-04-09 03:40:00,
2013-04-08 23:45:00,67.8,57.7,29.79,WSW,257,21.0,33.0,70,0.00,,,0.00,meteohub,2013-04-09 03:45:00,
2013-04-08 23:50:00,60.3,50.4,29.82,West,271,32.0,33.0,70,0.00,,,0.00,meteohub,2013-04-09 03:50:00,
2013-04-08 23:55:00,56.8,50.7,29.82,West,259,33.0,40.0,80,0.00,,,0.00,meteohub,2013-04-09 03:55:00,